Location: ??????
(55.7522°N, 37.6156°E)
Time: 16:54:17
(UTC+00:00)

Cosmos 1300 Rocket - Pass Details

Date: 14 June 2025
Orbit: 597 x 619 km, 82.5° (Epoch: 12 July)

Event Time Altitude Azimuth Distance (km) Brightness Sun altitude
Rises 20:56:17 0° 349° (N) 2,902 9.3 -10.6°
Reaches altitude 10° 20:58:33 10° 354° (N) 1,994 7.8 -10.7°
Maximum altitude 21:02:55 57° 74° (ENE) 737 4.0 -10.7°
Enters shadow 21:06:46 13° 151° (SSE) 1,797 5.4 -10.8°
